Wind_Speed
25 24 22 21 20 21 21 20 19 18 16 16 17 17 16 15 15 15 14 13 13 14 15 15 15 15 14 14 13 13 13 13 12 11 12 12 12 12 13 14 15 16 17 19 21 22 24 25 27 28 28 29 29 29 29 28 28 28 29 29 29 29 28 28 28 28 28 27 27 27 27 28 28 28 27 26 25 24 23 22 23 23 23 23 23
25 24 23 22 20 21 21 21 20 18 16 16 17 17 17 17 16 16 15 15 14 14 15 16 16 16 15 15 14 13 13 13 12 11 11 12 13 13 14 15 16 18 19 21 23 24 26 27 28 28 29 29 30 29 29 29 29 29 30 30 30 30 30 30 30 30 29 29 28 28 28 28 29 29 28 28 28 26 25 24 23 24 23 24 24
25 24 23 22 21 21 21 21 20 18 17 17 17 17 18 17 17 17 17 16 16 16 16 17 17 16 15 15 14 13 13 13 12 12 12 13 14 15 15 17 18 20 21 23 24 26 27 28 29 29 30 30 30 29 29 29 30 30 31 31 32 32 31 31 31 31 31 30 30 29 29 29 30 30 29 29 29 29 28 27 25 25 24 24 24
25 25 25 23 22 22 21 21 20 19 17 17 17 18 18 18 18 17 17 17 17 17 18 18 18 18 16 16 15 14 13 13 13 12 12 13 14 15 17 19 20 22 23 24 25 26 28 29 30 30 30 30 30 30 30 30 30 31 32 32 33 33 33 32 32 32 32 32 31 31 31 31 31 30 30 30 30 30 30 29 28 27 26 25 25
26 26 26 25 24 23 22 22 20 18 18 18 18 18 19 18 17 17 17 18 19 19 20 20 20 19 17 16 16 14 13 13 13 13 13 13 14 15 17 19 21 23 25 27 27 28 29 30 31 31 30 30 30 31 31 31 32 32 33 34 34 35 35 34 34 34 34 34 34 33 33 33 33 32 31 31 31 31 31 31 30 29 28 27 27
27 27 26 26 25 23 23 22 20 18 18 18 18 18 19 18 18 18 18 19 20 21 21 22 21 20 18 16 16 15 14 13 14 14 14 15 15 16 17 18 20 22 25 28 30 30 30 31 31 31 30 31 32 32 33 33 33 35 35 36 36 36 36 36 36 36 37 37 37 36 36 36 36 35 34 33 32 32 32 32 32 31 30 29 29
27 27 28 28 26 24 24 22 20 19 19 19 18 19 18 18 18 19 19 20 20 21 22 22 21 19 17 16 15 14 14 13 13 14 15 16 16 17 19 20 22 23 24 27 30 31 31 31 31 31 31 32 33 34 34 35 36 36 37 37 37 37 37 38 38 38 38 39 39 39 39 39 40 39 37 36 34 33 33 33 33 32 32 31 30
28 28 29 28 26 25 24 22 20 19 19 19 19 19 19 18 18 19 20 20 21 21 22 22 21 19 16 15 14 14 13 13 13 14 15 16 18 19 21 23 25 26 27 27 27 29 30 31 32 32 33 33 34 35 35 36 36 37 37 37 37 37 38 38 39 39 39 40 41 41 41 41 42 42 41 39 38 37 35 35 34 34 33 32 32
29 29 29 28 26 23 21 21 20 19 20 19 18 18 18 18 19 20 20 20 21 21 21 20 19 18 16 14 14 13 13 12 13 14 15 17 18 20 22 24 26 28 29 30 29 29 29 30 31 32 33 33 34 34 35 35 35 36 36 36 36 37 37 38 39 39 40 41 41 42 42 43 43 43 43 42 41 40 39 38 36 35 34 33 33
29 30 29 27 25 21 19 20 19 19 20 19 18 18 18 18 19 20 20 21 21 21 20 19 18 16 15 14 14 14 13 13 13 14 15 17 18 20 22 25 28 29 30 30 30 30 30 30 30 31 31 32 33 34 35 35 36 36 36 37 37 37 38 38 39 39 40 41 41 42 43 43 44 44 44 44 44 43 43 41 39 37 36 35 35
28 29 30 28 26 23 21 19 19 20 19 17 17 18 18 18 19 20 20 21 21 20 20 19 17 16 15 13 13 14 13 13 14 14 15 16 18 21 24 27 29 29 30 30 30 31 31 30 30 31 31 32 33 34 35 35 36 36 37 37 38 38 38 39 39 39 40 40 41 42 43 44 44 45 45 45 45 45 45 44 42 40 38 37 36
26 29 31 30 27 23 21 19 19 20 17 16 17 18 18 19 20 21 21 21 21 21 20 19 17 16 15 14 13 14 13 13 13 14 15 17 20 23 26 27 28 29 30 30 30 30 30 31 31 32 32 33 33 33 34 35 36 37 37 38 38 39 40 40 40 40 40 40 41 41 43 44 44 45 46 46 46 46 46 45 44 42 40 39 38
26 27 27 27 26 23 22 21 19 17 16 17 18 18 19 20 20 21 21 21 21 21 20 20 18 16 15 14 14 14 13 13 14 14 16 19 23 25 26 27 28 28 29 30 30 30 31 31 31 31 32 32 33 34 35 36 37 38 39 40 40 41 41 41 41 41 41 41 41 42 42 43 44 45 46 47 47 48 47 47 46 44 42 41 40
24 24 24 26 27 25 24 23 21 20 19 19 19 19 20 21 21 21 21 21 21 20 20 19 18 17 15 14 14 14 14 13 14 16 19 22 24 26 27 27 28 28 28 29 29 29 30 30 30 31 32 34 35 37 38 39 40 40 41 41 42 42 43 43 42 43 43 43 43 43 44 44 45 45 46 47 48 49 49 49 48 47 45 43 42
24 24 25 26 27 25 24 23 21 21 21 20 20 20 20 21 21 21 21 21 20 20 20 19 18 17 16 15 14 14 15 14 15 18 21 23 25 26 27 27 27 27 27 28 28 28 28 29 30 32 34 36 37 38 38 39 40 40 41 42 42 43 43 44 44 45 45 46 46 46 46 46 47 47 47 48 48 49 50 50 50 50 49 47 44
24 24 25 26 25 24 24 23 21 20 20 20 20 20 20 21 21 21 21 21 21 20 19 19 17 16 15 14 13 13 15 17 18 20 22 24 26 27 27 27 27 27 27 27 27 27 28 30 32 33 34 35 36 37 38 40 41 41 42 43 43 44 45 46 46 47 48 49 49 49 49 49 49 49 49 49 50 50 51 51 51 51 51 50 48
25 24 24 25 24 23 24 24 23 23 22 21 21 21 21 21 21 21 21 21 21 20 19 18 18 17 16 15 14 13 15 18 21 23 24 25 25 26 26 26 26 26 26 26 27 27 29 31 32 33 34 36 37 39 40 41 42 42 43 43 44 45 46 47 48 49 50 51 52 52 52 52 52 51 51 51 51 51 52 52 52 52 52 51 51
26 24 22 23 24 24 25 26 26 25 24 23 22 22 23 22 22 22 22 21 21 20 19 18 17 17 17 16 15 16 17 19 21 23 24 24 24 25 25 25 25 25 25 26 27 29 30 32 33 35 37 38 39 40 41 41 42 43 44 45 45 46 48 49 50 51 52 53 53 53 52 52 52 52 52 52 52 52 52 53 53 53 53 53 52
26 24 22 22 23 24 25 26 25 24 24 23 22 23 23 23 23 22 22 22 21 19 18 18 17 17 17 16 17 18 19 20 20 21 22 23 23 24 24 24 24 25 25 26 28 30 32 34 36 38 38 39 39 40 41 41 42 44 45 46 47 49 51 52 54 55 55 55 54 52 51 50 49 49 49 50 50 51 52 53 54 55 55 55 54
25 24 23 22 22 23 24 25 25 24 23 22 22 23 24 23 23 22 22 22 21 19 18 17 17 16 16 17 18 19 20 21 21 21 21 22 23 23 23 23 24 25 26 27 29 31 33 35 35 35 36 36 37 38 39 41 42 43 45 47 48 50 52 54 55 55 54 53 52 51 50 49 48 47 47 47 48 49 50 51 52 54 55 56 56
25 25 24 23 24 23 24 25 25 25 23 23 23 23 22 21 21 22 22 22 21 19 18 17 15 15 16 17 18 19 20 21 22 22 22 22 22 22 23 24 25 26 27 28 30 31 31 32 32 33 34 35 36 38 40 42 43 45 47 49 50 52 54 55 56 55 54 52 50 49 49 48 48 47 47 47 47 48 49 49 50 50 52 55 57
25 25 25 25 26 25 25 26 25 24 22 22 22 21 19 20 20 22 22 22 20 19 17 15 14 14 15 16 17 18 19 21 22 22 23 23 22 22 23 24 25 26 27 28 30 31 31 31 32 32 34 35 37 39 42 44 46 47 49 51 52 54 56 57 57 57 55 53 51 50 49 48 47 46 45 45 45 46 47 48 49 49 49 51 54
26 26 26 27 28 27 26 25 23 21 19 20 20 19 19 20 21 23 23 22 20 17 15 13 13 14 15 16 17 18 20 21 22 23 23 23 23 23 24 25 25 25 26 28 30 31 31 32 32 33 35 37 39 41 43 45 47 49 50 52 53 55 57 58 58 57 56 54 53 52 51 49 47 45 43 41 41 42 43 45 47 48 48 48 50
26 27 26 26 25 24 24 23 22 21 20 20 19 18 20 22 23 22 20 18 16 14 12 12 13 14 15 16 17 19 20 21 22 23 23 23 23 24 25 26 26 27 28 29 30 30 31 31 32 34 36 38 40 42 44 46 48 50 51 53 54 56 57 58 58 57 55 54 54 54 52 48 44 42 41 40 39 39 39 40 42 44 46 46 47
25 25 25 24 22 23 23 22 22 22 21 19 18 19 22 23 21 19 16 14 12 11 11 12 13 14 15 17 18 19 20 21 22 23 23 23 24 25 26 27 28 29 30 30 31 30 31 31 33 35 36 38 40 42 44 47 50 52 53 54 55 56 57 58 57 56 55 55 55 54 51 46 42 41 40 39 39 38 38 38 38 40 42 44 45
24 24 25 24 23 23 23 22 23 22 20 18 18 19 19 19 17 15 13 12 10 10 12 12 13 14 16 17 18 20 21 21 22 23 23 24 25 26 27 28 29 30 31 31 30 30 30 31 33 34 36 37 39 42 45 48 51 53 54 55 55 56 57 57 56 55 54 54 55 54 50 45 42 41 41 41 41 39 38 37 37 36 37 40 42
25 25 25 25 23 22 22 23 23 21 19 18 17 18 17 16 15 13 11 10 10 11 12 13 14 15 17 18 19 20 21 22 23 23 24 25 26 27 28 28 28 29 30 29 29 29 30 31 33 34 36 37 39 42 45 48 51 53 54 55 55 56 56 56 55 54 53 54 54 54 50 45 43 42 42 42 40 39 38 37 36 36 35 35 37
26 25 25 24 23 20 20 21 21 20 18 18 18 19 18 16 14 12 10 11 11 12 12 14 15 16 18 19 20 21 22 22 23 24 25 25 26 27 28 29 29 29 29 28 28 29 30 32 33 34 36 37 39 43 45 48 49 51 53 54 55 56 56 56 55 54 53 53 54 54 51 47 45 44 43 41 40 39 37 36 35 34 34 33 33
24 23 22 21 21 20 20 19 18 18 18 19 20 20 18 15 13 11 10 11 12 12 14 15 16 17 19 20 21 21 22 23 24 25 25 26 27 28 29 29 29 29 28 28 28 29 30 31 33 35 37 38 40 42 45 47 48 50 52 54 55 55 55 55 55 54 54 53 54 54 52 48 46 44 42 42 42 41 38 36 34 32 32 32 31
20 20 19 19 18 18 18 17 16 17 19 21 21 18 15 12 10 10 10 12 12 13 15 16 17 18 20 21 21 22 23 25 26 26 26 27 27 28 29 29 28 28 27 28 29 29 30 32 33 35 37 39 40 42 44 46 47 48 50 53 54 55 55 55 55 55 54 53 54 54 53 50 47 45 42 41 41 42 39 36 34 32 30 30 31
18 18 18 17 15 15 14 15 16 19 20 19 16 13 10 9 9 10 11 12 13 14 15 16 18 20 21 21 22 23 25 26 26 27 27 27 28 28 28 28 27 27 27 28 28 29 30 32 33 35 37 39 40 42 43 45 46 48 49 52 53 54 55 55 54 54 53 52 52 54 54 52 50 48 45 42 40 40 39 37 35 33 30 28 29
17 16 16 14 11 11 13 15 18 18 16 12 10 8 8 9 10 11 12 13 14 15 16 18 19 20 21 22 23 25 26 26 27 27 27 28 28 28 28 27 26 26 27 27 28 29 30 32 33 35 37 38 39 41 43 44 46 47 48 50 52 53 53 52 52 52 51 51 51 53 54 54 53 51 49 47 43 40 38 37 35 33 32 30 29
11 11 11 12 12 14 15 15 14 13 10 7 7 8 8 9 11 12 13 13 15 16 18 19 20 21 22 23 25 26 26 27 27 28 28 28 29 28 27 27 26 26 26 27 28 29 30 31 33 35 36 37 39 40 42 43 44 46 47 49 50 51 51 50 50 49 49 50 50 51 53 53 53 53 52 51 48 43 39 37 35 32 31 30 30
8 8 9 11 12 13 12 10 8 7 6 6 7 7 8 10 11 12 13 15 16 18 19 20 21 21 23 24 26 26 27 27 28 28 28 29 29 28 27 27 26 26 26 27 28 29 30 31 32 34 36 37 38 39 41 42 43 44 45 47 48 49 49 49 48 48 49 49 49 50 51 52 53 53 52 51 49 45 41 39 36 32 29 29 29
8 8 7 7 6 5 4 4 4 4 5 5 6 7 9 10 12 13 15 16 18 19 20 21 21 22 23 25 26 27 27 28 28 29 29 29 28 27 27 26 26 26 27 28 28 28 29 31 32 34 35 36 38 39 40 41 42 43 43 44 46 47 48 48 47 48 48 49 49 49 49 51 52 53 53 52 50 47 43 40 37 33 29 28 28
7 7 6 4 3 3 2 2 3 4 5 6 7 9 10 12 13 15 16 18 19 21 21 22 22 23 24 26 27 27 28 28 28 29 29 28 28 27 27 26 26 26 27 28 27 27 28 30 32 33 35 36 38 39 39 40 41 42 42 42 43 45 46 47 47 48 48 49 49 48 49 50 51 52 53 52 52 49 46 42 40 36 32 29 28
5 6 5 4 4 4 4 4 5 6 7 8 9 11 12 14 15 16 18 19 21 22 22 23 23 24 25 27 28 28 28 28 28 28 28 28 28 27 27 26 26 27 28 27 26 27 28 30 31 33 34 36 38 38 39 39 39 40 41 41 42 43 44 46 47 48 49 49 49 49 49 49 50 52 53 53 52 49 45 42 40 38 35 33 30
6 7 7 6 5 5 5 6 7 8 9 11 12 13 14 15 17 18 19 21 22 23 24 24 25 26 27 28 29 29 28 28 28 28 28 29 28 27 26 26 26 27 27 26 26 27 28 30 31 32 34 36 37 38 38 39 38 38 39 39 40 41 43 44 46 48 49 49 49 49 50 50 51 51 52 53 53 51 47 42 40 38 36 34 32
9 9 8 7 6 6 6 8 9 10 11 13 14 15 16 17 19 20 21 22 23 25 26 26 27 28 29 29 29 29 29 28 29 29 29 28 28 27 27 27 27 27 26 26 27 28 29 30 31 32 33 35 36 37 38 38 38 38 37 37 38 40 42 43 45 47 48 49 50 50 50 51 51 51 52 53 54 53 49 45 42 40 37 34 33
11 10 9 8 7 7 8 9 10 12 13 14 16 17 18 19 20 22 23 24 25 26 27 28 29 30 30 31 30 30 29 29 30 30 28 27 27 27 27 27 26 26 26 27 27 28 29 30 31 32 33 34 35 36 37 37 37 36 36 36 37 39 40 42 43 45 47 49 49 50 50 50 50 51 52 53 53 53 51 48 45 43 40 37 34
11 11 10 9 9 9 10 11 12 13 14 16 17 19 20 21 22 24 25 26 27 27 28 29 30 30 31 32 31 30 29 30 31 30 28 27 27 27 27 26 25 26 27 27 28 28 29 30 31 31 32 33 34 35 36 36 36 35 36 37 37 38 40 41 42 44 45 47 49 49 49 49 50 50 51 52 53 53 53 52 50 48 45 40 38
11 11 11 11 11 12 12 13 14 15 16 18 19 20 21 22 23 25 25 26 27 28 29 30 30 31 32 33 32 31 30 30 31 29 27 27 27 27 26 25 25 26 27 28 28 29 30 30 30 31 32 32 33 34 35 35 35 35 36 36 37 37 39 40 42 43 44 46 47 48 49 49 49 49 50 51 53 54 54 54 52 51 49 44 40
12 13 13 13 14 14 14 15 16 17 18 20 21 21 23 24 25 25 26 27 27 28 29 30 31 33 35 36 35 33 31 30 29 27 26 26 26 26 25 25 25 26 28 28 29 29 30 30 30 30 31 32 32 33 34 34 34 35 36 36 37 37 38 39 40 41 43 44 45 47 48 49 49 49 49 50 52 53 54 54 53 53 52 48 43
14 14 15 15 16 16 17 18 18 19 21 22 23 24 25 26 26 27 27 28 28 28 29 31 34 36 37 39 38 34 31 29 27 26 26 26 26 25 25 24 25 26 28 28 29 29 30 30 30 30 30 31 32 32 32 32 33 35 36 36 37 37 38 39 40 41 42 43 44 45 47 48 49 49 49 49 50 52 53 54 53 54 54 52 47
16 16 17 17 18 18 19 20 21 22 24 25 25 26 27 27 28 28 28 29 29 29 30 32 35 36 39 41 39 34 30 27 26 25 26 26 25 25 24 24 25 26 28 29 29 29 30 30 30 30 30 30 30 30 31 33 34 36 36 37 37 37 37 38 39 40 41 43 44 45 47 48 49 50 50 50 49 50 51 52 53 53 54 54 51
17 18 18 19 20 21 22 23 23 25 27 27 27 28 28 28 29 28 29 30 30 31 33 34 35 36 40 43 39 32 28 26 25 25 26 25 25 25 24 24 26 27 28 29 30 30 30 30 30 30 30 30 31 32 33 35 36 36 37 38 38 38 38 38 38 39 41 42 44 45 47 49 50 51 51 50 50 50 50 51 52 53 55 55 54
19 20 21 22 22 23 25 25 26 28 29 29 29 30 29 29 29 28 29 30 31 31 32 33 32 35 40 41 36 29 26 25 25 26 26 25 25 25 25 25 26 28 29 29 30 30 30 30 30 30 30 30 32 33 34 35 36 37 38 39 39 38 38 38 38 39 41 42 43 44 46 48 50 51 52 52 51 51 51 51 52 52 54 55 55
22 23 23 24 25 26 27 27 29 31 31 30 31 31 30 29 28 28 29 31 31 31 31 30 29 32 37 36 30 26 25 25 26 26 25 26 26 25 26 26 27 28 29 30 30 30 30 31 31 31 31 32 32 33 33 34 36 37 38 39 39 39 39 39 39 39 40 41 42 44 45 47 48 50 52 53 52 51 51 51 51 51 51 53 55
24 25 25 27 28 29 29 29 31 33 33 32 32 32 30 29 29 29 30 30 31 31 32 31 27 29 32 31 27 25 25 25 26 26 26 26 26 26 26 27 27 28 29 31 31 31 31 32 32 32 32 33 33 33 34 34 35 37 38 39 39 40 40 40 40 40 40 41 41 43 44 45 47 48 50 52 52 51 50 50 51 50 49 50 52
27 27 28 30 31 32 31 30 32 34 33 32 33 33 31 29 29 30 30 30 30 31 32 30 27 27 29 28 25 25 25 26 26 26 27 27 27 27 27 27 28 29 30 31 32 32 32 32 32 33 33 33 33 34 34 35 36 36 37 38 40 41 41 41 41 40 41 41 41 42 43 45 46 47 48 50 52 52 50 49 49 50 49 48 49
30 30 31 32 33 33 31 30 33 36 34 32 33 34 32 29 29 30 30 30 30 31 32 29 26 27 27 26 25 25 26 27 27 27 27 27 27 28 28 28 29 30 30 32 33 33 33 33 33 33 33 33 34 34 34 35 36 37 38 39 40 41 42 42 42 41 41 41 41 42 43 44 45 47 47 47 49 50 49 48 48 48 49 47 47
Wind_Direction
296 295 292 287 280 270 265 266 268 270 272 273 277 281 285 290 295 301 309 313 314 315 313 307 300 296 296 298 303 308 307 309 311 312 313 314 314 315 315 317 320 321 322 323 324 323 324 325 325 325 324 324 324 324 324 323 322 322 321 320 319 318 317 316 315 314 314 313 311 310 309 308 306 306 307 308 308 307 305 303 300 295 291 287 284
296 295 293 288 281 271 264 264 267 271 273 272 276 283 286 287 290 295 301 304 306 309 311 310 304 297 293 292 295 302 304 305 307 308 308 307 308 311 313 315 317 317 319 321 322 322 322 322 322 322 322 322 322 321 320 320 319 319 319 319 318 316 315 315 313 312 311 310 310 309 307 305 303 303 303 304 304 304 303 302 301 299 296 293 289
295 294 291 289 282 273 266 265 267 272 276 276 278 281 282 285 288 291 297 302 305 308 309 311 308 299 293 290 291 297 300 300 301 301 301 302 304 308 310 313 316 318 320 321 321 322 321 321 321 321 321 320 320 319 318 318 318 318 319 318 317 316 315 314 312 311 310 309 308 307 306 304 302 301 301 301 300 300 300 300 299 298 297 296 292
295 292 290 288 283 274 268 266 267 272 277 280 282 282 283 286 288 290 296 301 305 308 309 310 309 303 297 293 293 294 295 293 294 295 296 300 303 308 312 315 318 320 321 321 321 321 321 320 320 320 320 319 318 317 317 318 318 318 318 318 317 316 315 314 313 312 311 310 309 308 305 303 301 300 299 298 297 297 296 296 296 295 295 294 293
295 292 289 288 283 276 268 265 266 272 278 280 283 283 285 288 289 293 299 303 306 308 309 310 308 304 300 295 294 293 291 290 290 292 293 295 299 305 312 317 320 321 321 320 320 320 320 320 320 320 320 318 317 317 318 318 319 318 318 318 318 317 316 315 314 313 312 311 310 309 307 304 302 301 299 298 296 295 294 293 293 292 292 291 291
294 292 290 288 284 276 267 265 267 271 275 278 280 281 284 287 290 296 301 304 306 308 309 310 307 302 298 295 292 290 288 289 291 293 295 297 301 305 310 313 316 320 322 322 321 321 321 321 320 319 319 318 318 318 319 319 319 319 318 318 318 317 315 314 313 312 311 310 309 308 307 305 304 303 301 299 297 295 293 292 291 290 289 288 287
291 290 289 289 285 275 267 264 265 267 271 277 279 280 283 286 290 297 300 302 304 306 309 310 307 300 295 292 290 287 286 289 293 296 299 303 306 309 312 314 316 319 321 321 320 321 321 321 320 319 319 320 320 320 320 320 319 319 318 318 317 316 314 313 312 310 309 308 306 306 305 304 303 302 301 300 298 296 293 291 290 288 287 285 284
288 287 288 287 282 274 267 262 261 264 269 275 278 281 285 287 290 295 296 299 301 304 308 308 305 299 293 289 286 285 288 293 296 299 303 306 310 313 316 319 322 322 321 320 319 319 320 320 320 320 321 322 321 320 320 319 318 318 317 317 316 314 313 312 310 309 308 306 305 304 303 302 301 300 300 299 297 295 293 291 289 288 286 284 282
286 283 281 278 273 266 261 260 260 264 267 272 278 281 284 288 291 293 294 296 298 302 305 304 301 295 289 286 285 286 291 295 297 300 304 309 314 318 321 324 323 321 320 320 320 320 320 319 320 321 321 321 319 318 318 317 316 316 316 315 314 312 311 310 309 308 307 306 304 303 302 300 299 299 298 297 296 294 292 291 289 287 285 283 281
285 279 275 275 274 266 264 267 265 265 266 269 274 277 281 287 288 289 291 293 297 300 301 299 296 290 286 286 288 291 293 294 296 301 307 313 318 321 323 321 319 318 319 320 321 321 320 320 319 319 319 319 319 319 318 318 317 316 316 314 313 312 310 309 308 307 306 304 303 302 300 299 298 297 296 295 294 293 292 290 288 286 285 283 281
285 278 273 272 273 269 269 275 274 270 269 269 273 276 280 284 285 286 289 292 296 299 299 297 294 290 287 288 292 293 292 294 298 304 309 314 318 319 318 317 316 317 319 320 320 320 320 320 321 321 321 321 321 320 319 319 318 317 316 315 314 312 311 309 308 306 304 303 302 300 298 297 296 295 294 293 292 291 290 289 288 286 284 281 279
278 275 271 269 269 265 263 271 278 274 269 270 275 278 282 284 284 286 288 291 294 296 297 296 294 292 290 291 291 290 291 294 299 305 310 314 316 315 315 315 316 318 319 319 320 321 322 323 324 324 323 322 321 321 320 320 320 319 319 318 317 315 314 312 310 308 306 304 302 300 298 296 294 292 291 290 289 289 288 287 286 284 282 280 277
275 275 273 270 269 265 260 263 268 268 268 274 278 280 283 284 284 285 286 289 291 293 296 296 295 293 291 290 288 288 291 295 300 306 310 313 314 314 314 315 317 319 320 321 322 323 324 324 324 324 324 324 325 325 325 325 325 324 323 322 320 318 316 314 312 310 308 307 305 302 300 297 295 292 290 288 287 286 285 285 284 283 280 278 275
275 276 275 273 271 268 264 263 264 268 275 281 282 282 283 283 283 284 285 286 289 291 294 294 294 292 290 286 285 287 289 295 304 309 311 313 314 314 315 317 319 320 321 323 324 324 324 324 325 327 328 329 330 330 329 328 327 326 324 323 321 319 316 313 311 310 308 307 305 303 301 298 296 293 291 288 286 284 283 282 282 281 279 277 274
278 280 279 276 274 272 269 267 268 271 277 281 282 282 282 281 281 281 283 285 287 289 290 291 290 289 287 286 287 291 294 298 304 309 312 313 313 314 316 318 320 322 324 325 325 325 326 327 330 332 333 333 332 331 329 328 327 326 324 322 320 318 315 314 312 311 309 307 305 303 300 297 295 293 290 288 286 284 283 281 280 279 278 277 274
281 281 277 273 272 271 268 269 273 275 278 280 280 280 279 278 278 279 282 284 284 285 286 287 284 280 278 280 283 291 301 307 309 310 311 311 313 315 317 320 322 324 326 326 326 326 329 332 334 335 334 333 331 330 330 329 328 326 324 322 320 318 317 315 314 312 311 309 307 304 301 298 295 292 289 286 284 282 281 280 279 277 276 275 274
281 280 276 270 268 266 264 269 279 282 280 278 276 276 277 277 278 280 282 282 282 283 283 282 279 276 274 272 275 284 296 304 307 308 309 311 314 316 319 322 324 325 326 326 327 330 333 335 336 334 333 333 332 332 331 329 327 325 323 321 320 319 318 316 315 314 312 310 308 306 303 300 296 292 289 285 282 279 277 276 275 275 274 273 273
281 280 274 268 264 262 264 271 278 280 279 275 272 274 277 277 279 280 280 280 280 280 278 277 275 274 274 275 279 285 291 296 303 306 309 312 316 318 321 323 325 326 326 327 330 334 335 335 334 334 334 334 333 331 330 328 326 325 323 322 321 321 320 319 318 316 314 312 310 308 306 303 300 296 292 288 283 278 274 271 270 270 270 270 270
280 280 275 269 266 265 266 269 273 277 276 273 270 273 276 277 278 279 278 277 277 276 274 272 272 274 278 283 287 290 294 298 304 308 311 314 317 320 322 324 325 326 327 330 333 335 334 334 334 335 335 334 332 330 329 328 327 326 325 325 325 325 324 323 322 321 319 318 316 314 311 308 305 301 297 292 287 282 276 271 267 265 264 265 266
281 280 279 275 271 268 266 267 271 273 272 272 273 276 277 277 276 276 275 275 274 271 269 268 271 277 283 288 292 297 302 306 309 312 314 317 319 321 323 324 325 327 330 332 334 335 335 336 336 335 334 332 330 329 328 327 327 328 328 328 329 328 328 327 326 325 324 322 321 319 316 313 309 304 299 295 291 287 282 276 270 264 261 260 260
280 279 280 279 276 272 267 269 272 271 271 275 277 278 278 276 274 273 273 273 270 265 263 266 272 279 285 291 298 303 308 311 313 315 317 319 321 322 324 325 327 329 332 333 334 336 336 336 335 332 330 329 328 329 329 330 331 332 332 333 332 332 331 330 329 327 326 325 324 321 318 315 311 306 302 297 292 288 285 282 277 270 264 259 257
279 277 279 280 278 273 268 268 270 270 272 276 278 278 277 276 274 273 272 271 266 259 259 265 272 279 287 295 302 306 310 312 314 316 318 320 321 322 325 326 328 329 331 332 333 334 334 333 332 330 330 330 331 333 335 336 337 337 336 335 335 334 333 332 331 330 329 328 326 324 322 318 314 310 306 302 296 291 286 283 280 276 271 264 258
277 276 278 278 276 271 265 265 266 267 271 276 277 278 278 278 276 274 271 267 261 257 259 265 272 281 291 299 304 308 310 312 314 317 319 320 321 322 324 326 326 327 328 330 331 332 332 332 331 331 332 334 336 338 340 341 340 340 339 338 337 336 336 335 334 332 331 330 330 329 328 325 322 319 316 312 306 299 292 285 281 278 274 270 265
277 275 277 277 274 266 262 263 263 265 271 272 272 275 277 277 274 271 266 261 257 256 261 269 279 289 298 303 306 309 310 313 315 316 317 319 320 322 323 325 325 326 327 329 331 331 332 331 331 333 335 337 340 342 344 344 344 343 342 341 340 339 338 337 336 334 333 333 333 333 332 330 328 326 324 321 318 313 305 295 285 279 275 272 268
277 274 274 275 273 267 265 267 267 268 269 266 267 274 277 274 269 263 256 252 253 258 268 279 288 296 301 304 306 308 311 313 314 315 317 318 320 322 323 324 325 326 328 330 330 331 331 331 333 334 336 339 342 345 347 348 347 347 346 344 342 341 340 339 337 336 336 336 335 335 335 333 330 328 326 323 321 319 315 309 299 287 278 273 269
278 275 272 273 275 273 270 270 269 264 259 257 262 270 272 267 259 252 247 248 256 267 277 285 293 298 300 302 305 308 311 312 313 315 316 318 320 321 323 324 326 328 330 330 330 330 330 331 333 335 338 341 343 346 348 349 350 350 348 346 344 343 342 341 339 338 338 338 337 337 337 335 331 328 325 323 320 316 313 311 308 301 288 277 270
275 274 272 272 275 275 271 266 261 254 250 252 257 261 260 256 250 246 247 254 263 273 282 288 293 296 298 302 306 309 310 311 313 315 316 317 319 320 322 325 328 329 328 328 328 328 329 331 334 337 339 341 343 347 349 350 351 351 350 348 346 345 343 342 341 340 339 339 339 339 338 336 333 330 328 326 325 322 317 310 306 304 301 289 276
272 273 273 269 267 267 263 257 251 248 249 251 253 254 253 250 249 249 252 260 269 276 283 288 292 295 299 303 307 308 310 312 315 316 316 317 318 320 323 326 328 328 326 326 326 327 328 331 334 337 339 341 344 347 349 350 351 351 351 350 348 347 345 344 343 342 341 341 341 341 340 337 335 333 332 332 332 331 327 320 310 301 301 300 290
271 270 268 264 260 257 252 247 244 247 251 252 252 251 250 251 254 253 257 265 272 278 284 288 292 297 302 305 307 308 311 314 315 316 315 316 318 321 324 326 327 326 324 324 325 326 328 331 334 337 339 342 344 346 348 349 350 351 351 351 350 349 348 346 345 344 343 343 343 343 342 339 336 335 334 333 333 333 330 327 321 309 299 299 299
273 267 263 260 254 248 244 242 242 248 252 253 251 249 250 254 255 256 263 269 274 280 285 290 296 300 303 305 307 310 313 315 315 315 314 316 319 323 325 326 325 323 322 323 323 325 328 331 334 336 339 342 344 345 346 347 349 351 352 352 351 351 349 348 346 345 344 344 344 344 344 343 340 338 336 334 332 332 331 329 326 321 309 299 297
274 268 261 252 244 243 244 244 247 252 255 253 250 248 249 252 255 261 267 270 275 282 288 295 299 301 303 306 309 312 313 314 315 314 314 317 320 323 325 324 322 320 320 321 323 326 329 332 334 336 339 342 343 343 345 346 348 351 353 353 353 352 351 349 347 345 344 344 344 345 346 347 345 342 339 337 334 332 332 331 328 326 321 310 301
274 269 257 244 247 257 255 253 254 254 252 247 241 241 244 251 258 263 266 272 280 287 293 298 299 301 305 308 311 311 312 314 315 315 316 318 320 322 323 321 319 318 319 321 323 327 329 331 334 337 340 342 342 342 343 344 347 350 353 354 354 354 353 350 347 345 344 344 345 346 347 349 348 346 344 342 339 336 334 334 331 326 323 319 311
272 267 254 249 263 269 262 259 257 251 245 239 238 242 248 255 260 265 272 280 287 292 296 297 299 303 307 310 310 311 312 314 316 316 317 318 319 321 321 319 318 317 318 320 323 327 329 331 333 337 340 341 340 341 342 344 347 350 352 354 354 354 354 351 348 346 345 345 346 347 348 349 350 349 348 345 343 340 337 336 334 329 323 319 314
279 272 265 264 269 270 264 262 255 246 245 242 242 250 256 264 270 277 283 287 291 294 296 298 301 305 308 309 309 310 313 315 317 318 317 318 319 320 319 318 317 317 318 320 324 327 329 331 334 337 340 340 340 340 341 343 346 348 351 353 354 355 355 353 349 348 347 346 347 348 348 349 350 350 350 349 347 344 340 338 337 332 325 320 315
284 281 283 282 283 284 277 267 255 252 252 250 256 264 270 277 282 284 288 290 294 296 297 299 302 306 308 308 309 310 313 315 317 318 317 317 318 319 317 316 316 317 318 321 324 327 329 332 335 338 340 340 339 339 340 342 345 347 350 353 353 354 355 353 352 350 349 348 348 349 349 349 351 351 351 352 352 349 346 342 340 336 329 321 318
286 287 292 295 303 309 302 287 278 273 273 275 279 281 283 285 285 287 291 294 297 298 298 299 302 306 307 307 308 310 312 315 317 317 317 317 317 317 315 316 316 317 319 321 324 327 329 332 335 338 339 338 338 339 340 342 345 347 349 351 353 353 354 354 353 353 352 351 349 350 350 351 351 352 352 354 355 353 349 345 342 339 334 329 322
288 280 278 283 291 296 298 297 293 289 288 289 289 289 287 286 288 293 297 299 300 300 299 300 302 305 306 307 309 310 311 315 317 317 317 317 316 315 315 316 316 317 319 320 324 327 329 331 335 337 337 337 337 338 339 342 345 347 348 349 350 353 353 353 354 354 354 353 351 350 351 351 352 352 352 355 356 355 350 346 342 339 335 333 329
280 274 275 278 284 292 294 293 293 294 295 295 294 292 290 290 293 297 300 302 302 301 300 301 302 304 306 307 308 308 311 313 315 316 317 315 314 314 315 315 316 317 318 320 324 327 328 330 333 334 335 336 337 337 338 340 343 345 346 347 349 351 352 352 353 354 354 353 352 351 351 352 352 352 352 354 356 356 354 348 343 340 336 332 329
281 280 281 283 287 293 293 292 294 295 296 296 296 294 292 292 294 296 299 300 301 302 302 302 302 304 305 306 306 307 309 311 313 315 315 313 313 313 314 315 315 316 317 320 323 325 326 329 331 331 333 334 336 336 337 339 341 343 345 346 347 348 349 351 352 353 353 353 353 351 351 351 352 352 352 354 355 355 355 352 347 343 340 335 331
283 283 283 285 287 288 288 290 291 291 293 294 293 292 292 292 292 294 296 297 298 300 300 300 301 302 303 303 303 305 306 308 311 313 312 311 312 312 313 314 315 316 317 320 322 323 325 327 328 329 331 333 335 336 336 338 340 342 343 344 345 345 346 348 350 351 351 352 352 352 351 350 351 352 352 353 353 353 355 355 352 347 343 339 336
283 284 285 285 283 280 281 284 284 286 288 288 289 289 290 291 291 292 293 295 296 298 298 299 299 300 301 302 301 303 304 306 310 312 310 309 310 312 312 312 314 316 318 320 321 322 324 325 326 327 330 332 334 334 335 337 338 339 340 342 343 344 345 346 348 349 350 350 351 352 351 350 350 351 352 352 351 351 354 355 353 350 347 342 338
283 285 286 284 282 280 279 280 281 284 285 285 286 287 288 289 289 290 291 293 295 297 298 298 297 299 301 301 300 301 302 305 309 310 308 308 310 311 311 311 314 316 317 319 321 322 323 323 324 326 329 331 332 332 334 335 336 337 338 340 342 343 344 345 346 347 348 349 350 351 351 350 350 351 352 352 351 350 352 355 354 351 350 347 342
281 283 284 284 283 282 282 282 283 284 283 283 284 285 285 286 287 288 291 293 296 299 299 298 297 299 301 300 299 301 302 305 308 307 306 307 309 309 309 311 313 315 317 319 320 321 321 321 322 325 327 328 329 331 333 333 334 335 337 338 340 341 343 344 344 344 345 347 349 350 351 351 351 352 353 353 352 350 351 353 354 353 351 350 346
278 280 281 282 281 281 281 280 281 281 280 281 282 282 283 284 286 288 290 293 297 300 300 297 296 297 299 298 299 302 303 304 305 304 304 307 308 308 309 311 312 314 316 318 319 319 320 320 322 324 325 325 328 330 330 330 331 334 336 337 338 339 342 343 343 343 344 346 348 349 351 352 352 353 354 353 352 351 350 351 353 354 353 352 350
277 279 281 281 281 281 280 279 279 279 279 280 280 280 282 283 285 288 291 295 298 299 299 296 295 297 298 297 299 302 302 301 301 301 303 305 306 307 308 309 310 312 313 315 317 318 320 321 321 321 322 323 325 326 327 329 332 334 335 335 336 337 340 341 342 343 344 345 346 347 349 351 351 353 354 354 353 352 350 350 352 353 354 355 355
275 279 281 282 281 281 280 279 278 276 276 278 278 279 281 283 285 290 294 297 298 299 299 297 299 302 300 297 299 301 299 297 298 300 301 303 304 306 307 308 309 311 312 314 317 318 319 319 318 318 320 322 324 325 328 331 332 333 333 333 334 336 338 340 341 343 344 344 345 346 347 348 349 351 352 352 354 354 352 351 351 352 354 356 358
273 276 277 278 278 278 278 277 275 274 275 276 277 279 282 285 288 293 295 296 298 298 297 298 301 302 299 298 298 298 296 295 296 298 300 301 303 305 307 308 308 309 312 314 315 316 317 317 316 317 320 323 325 328 330 331 331 331 332 333 334 336 337 338 340 342 343 343 343 344 345 346 347 349 349 350 352 354 354 352 351 352 353 355 358
271 273 274 276 276 277 278 276 274 274 275 277 278 281 284 287 289 291 292 294 296 297 297 298 300 298 296 297 297 294 293 293 295 297 298 300 302 304 305 305 306 308 311 312 313 314 314 315 316 318 321 324 326 328 329 330 331 331 332 333 334 335 336 337 338 339 340 341 342 343 343 345 346 346 347 348 350 352 353 353 352 352 353 355 357
271 272 274 277 278 278 277 276 275 275 277 280 281 283 285 287 287 288 290 293 295 296 297 298 297 295 294 295 294 292 291 292 294 296 297 298 301 302 303 304 305 308 310 310 311 312 313 315 316 318 320 323 325 326 327 329 330 330 331 332 333 334 334 335 336 337 337 338 340 341 342 343 344 344 345 346 347 349 351 352 352 353 354 354 356
272 274 276 278 278 277 278 278 278 278 280 282 282 282 284 284 284 286 289 292 292 294 297 297 294 291 291 291 291 289 289 291 292 294 295 297 299 300 301 304 306 307 308 309 310 311 312 314 315 317 320 322 323 325 326 327 328 329 330 331 331 332 333 334 335 335 335 336 337 339 341 341 342 343 344 345 345 346 349 351 351 351 353 355 356
273 275 277 277 277 277 279 279 278 278 281 284 284 284 283 282 284 286 289 291 292 294 297 297 291 286 286 287 288 288 288 289 291 292 294 295 297 298 300 303 305 306 307 307 309 310 311 313 315 317 319 320 322 323 324 325 326 327 328 329 331 332 332 332 333 333 333 334 334 335 338 339 339 341 343 344 345 345 347 349 350 350 351 354 356
Height
5853 5853 5854 5854 5854 5854 5853 5854 5854 5854 5855 5855 5853 5853 5853 5852 5852 5852 5851 5850 5850 5850 5850 5850 5850 5849 5849 5847 5847 5846 5846 5846 5846 5845 5845 5844 5843 5843 5842 5841 5841 5840 5839 5838 5837 5836 5835 5834 5832 5831 5829 5828 5827 5825 5824 5823 5821 5820 5818 5817 5816 5814 5813 5812 5811 5809 5808 5807 5805 5804 5803 5801 5800 5798 5797 5796 5795 5794 5793 5792 5791 5790 5789 5788 5787
5852 5852 5852 5852 5852 5852 5852 5852 5852 5853 5853 5853 5852 5852 5851 5851 5851 5851 5850 5850 5850 5849 5849 5849 5849 5848 5848 5847 5846 5845 5845 5845 5845 5844 5844 5843 5842 5842 5841 5840 5840 5839 5838 5837 5836 5835 5834 5832 5831 5829 5828 5826 5825 5824 5822 5821 5819 5818 5816 5815 5813 5812 5811 5810 5808 5807 5806 5804 5803 5802 5800 5799 5797 5796 5795 5794 5793 5792 5791 5790 5789 5788 5787 5786 5785
5850 5850 5850 5850 5850 5850 5850 5850 5850 5851 5851 5851 5852 5851 5851 5850 5850 5850 5849 5849 5849 5848 5848 5848 5847 5847 5847 5846 5845 5844 5844 5844 5844 5843 5843 5843 5842 5841 5840 5840 5839 5838 5837 5836 5835 5833 5832 5830 5829 5828 5826 5825 5823 5822 5820 5819 5817 5816 5814 5813 5811 5810 5809 5807 5806 5804 5803 5802 5801 5799 5798 5796 5795 5794 5793 5791 5790 5789 5788 5787 5786 5785 5784 5783 5782
5849 5848 5848 5848 5848 5848 5848 5848 5848 5849 5849 5850 5850 5850 5849 5849 5849 5849 5848 5848 5848 5848 5847 5847 5846 5846 5845 5845 5844 5843 5842 5842 5842 5842 5842 5842 5841 5840 5839 5838 5837 5836 5835 5834 5833 5832 5830 5828 5827 5826 5824 5823 5821 5819 5818 5817 5815 5814 5812 5811 5809 5807 5806 5805 5803 5802 5800 5799 5798 5796 5795 5793 5792 5791 5790 5789 5787 5786 5785 5784 5783 5782 5781 5780 5779
5847 5846 5846 5846 5846 5846 5846 5846 5847 5848 5848 5848 5849 5848 5848 5849 5849 5848 5847 5847 5847 5846 5846 5845 5845 5844 5844 5843 5843 5842 5841 5841 5841 5841 5841 5841 5840 5840 5839 5837 5836 5835 5833 5832 5831 5830 5829 5827 5825 5824 5822 5820 5819 5817 5816 5815 5813 5812 5810 5809 5807 5805 5803 5802 5800 5799 5797 5796 5795 5793 5792 5790 5789 5788 5787 5786 5784 5783 5781 5780 5780 5779 5778 5777 5777
5845 5844 5844 5844 5843 5844 5843 5844 5845 5846 5846 5846 5847 5847 5847 5848 5848 5847 5846 5845 5845 5845 5845 5844 5843 5842 5842 5842 5842 5841 5840 5840 5840 5840 5839 5839 5839 5838 5838 5837 5836 5835 5832 5830 5828 5827 5826 5825 5823 5821 5820 5818 5816 5815 5814 5812 5811 5809 5807 5806 5804 5802 5801 5799 5797 5796 5794 5793 5792 5790 5789 5787 5785 5784 5783 5782 5781 5779 5778 5777 5776 5776 5775 5774 5773
5843 5843 5842 5841 5840 5841 5841 5842 5843 5844 5844 5845 5845 5846 5846 5847 5847 5846 5845 5844 5844 5844 5843 5843 5842 5841 5841 5840 5840 5840 5839 5839 5839 5838 5837 5837 5837 5836 5836 5835 5834 5834 5833 5830 5827 5824 5823 5822 5820 5819 5818 5816 5814 5812 5811 5810 5808 5806 5804 5803 5801 5799 5798 5796 5794 5793 5791 5790 5788 5787 5785 5783 5782 5780 5780 5778 5777 5776 5774 5773 5772 5772 5771 5770 5770
5841 5840 5839 5838 5837 5838 5838 5839 5840 5842 5843 5843 5844 5844 5845 5845 5845 5844 5843 5843 5843 5843 5842 5841 5840 5839 5839 5839 5839 5838 5838 5838 5837 5836 5836 5835 5835 5834 5834 5833 5831 5830 5830 5829 5827 5825 5822 5820 5818 5816 5815 5814 5812 5810 5809 5807 5805 5803 5801 5800 5798 5796 5794 5793 5791 5789 5788 5786 5785 5783 5782 5780 5778 5776 5775 5774 5773 5772 5770 5769 5768 5767 5767 5766 5766
5839 5838 5837 5837 5837 5837 5837 5836 5837 5839 5840 5841 5842 5843 5843 5843 5843 5843 5842 5841 5841 5841 5841 5840 5839 5838 5838 5838 5838 5837 5837 5836 5836 5835 5835 5834 5833 5832 5831 5830 5830 5828 5827 5825 5824 5823 5822 5820 5817 5815 5813 5811 5810 5808 5807 5805 5803 5801 5799 5797 5795 5793 5791 5790 5788 5786 5784 5783 5781 5779 5778 5776 5774 5772 5771 5770 5768 5767 5766 5765 5764 5763 5762 5762 5761
5839 5839 5838 5838 5838 5838 5838 5836 5836 5837 5838 5839 5841 5841 5842 5842 5842 5841 5840 5839 5839 5840 5839 5839 5838 5837 5837 5836 5836 5836 5836 5835 5835 5834 5834 5833 5832 5831 5830 5829 5828 5827 5825 5824 5822 5821 5819 5818 5816 5814 5812 5810 5808 5806 5804 5802 5800 5798 5796 5794 5792 5790 5788 5786 5784 5782 5781 5779 5777 5775 5773 5772 5770 5768 5766 5765 5763 5762 5761 5760 5760 5759 5758 5757 5756
5838 5837 5836 5836 5836 5837 5838 5837 5836 5836 5837 5838 5839 5839 5840 5840 5840 5839 5838 5838 5838 5838 5837 5837 5836 5835 5835 5835 5835 5834 5834 5834 5833 5833 5833 5832 5831 5830 5829 5828 5826 5825 5823 5822 5820 5819 5817 5816 5814 5812 5810 5808 5806 5804 5802 5799 5797 5795 5793 5791 5789 5787 5785 5783 5781 5779 5776 5775 5773 5771 5769 5767 5765 5763 5761 5760 5758 5757 5755 5754 5754 5753 5753 5752 5751
5834 5833 5832 5832 5833 5834 5835 5836 5836 5835 5835 5837 5837 5838 5838 5838 5838 5837 5837 5836 5836 5836 5835 5835 5834 5834 5834 5833 5833 5833 5833 5833 5832 5832 5831 5831 5830 5829 5828 5826 5825 5823 5822 5820 5818 5817 5815 5813 5811 5809 5807 5806 5804 5802 5799 5797 5795 5792 5790 5788 5786 5783 5781 5779 5777 5775 5772 5770 5768 5766 5764 5762 5760 5758 5756 5754 5753 5751 5750 5749 5748 5747 5747 5746 5746
5832 5831 5831 5830 5831 5832 5833 5834 5834 5834 5835 5836 5836 5836 5836 5836 5836 5836 5835 5835 5835 5834 5834 5833 5833 5832 5832 5832 5831 5831 5831 5831 5831 5831 5830 5829 5828 5827 5826 5825 5823 5822 5820 5818 5816 5814 5813 5811 5809 5807 5805 5803 5801 5799 5796 5794 5792 5789 5787 5784 5782 5780 5777 5775 5773 5771 5768 5765 5763 5761 5759 5756 5754 5752 5750 5748 5747 5745 5744 5743 5742 5741 5740 5740 5739
5830 5830 5829 5829 5829 5830 5831 5832 5832 5832 5833 5834 5834 5834 5834 5834 5834 5834 5833 5833 5833 5833 5832 5832 5831 5830 5830 5830 5830 5830 5830 5830 5830 5829 5828 5827 5826 5825 5824 5823 5822 5820 5818 5816 5814 5813 5811 5809 5807 5805 5803 5800 5798 5795 5793 5790 5788 5785 5783 5780 5778 5775 5773 5771 5768 5766 5763 5761 5758 5756 5753 5751 5749 5746 5744 5742 5740 5739 5738 5736 5735 5735 5734 5733 5733
5828 5828 5828 5828 5828 5829 5830 5831 5831 5830 5831 5831 5832 5832 5832 5832 5832 5832 5831 5831 5831 5831 5831 5830 5830 5829 5829 5829 5829 5828 5828 5829 5829 5828 5826 5825 5825 5824 5822 5821 5820 5818 5816 5814 5812 5811 5809 5807 5804 5802 5800 5797 5795 5792 5789 5787 5784 5782 5779 5777 5774 5772 5769 5766 5763 5761 5758 5755 5752 5750 5747 5745 5742 5740 5738 5736 5734 5732 5730 5729 5728 5728 5727 5726 5726
5826 5827 5827 5826 5827 5828 5828 5829 5829 5829 5829 5829 5830 5830 5830 5830 5830 5830 5829 5829 5829 5829 5829 5828 5828 5828 5828 5828 5828 5828 5827 5826 5826 5826 5825 5824 5823 5822 5820 5819 5817 5815 5814 5812 5810 5809 5806 5804 5802 5799 5797 5795 5792 5789 5787 5784 5781 5778 5776 5773 5770 5767 5764 5761 5758 5755 5752 5749 5746 5743 5740 5738 5735 5733 5730 5729 5727 5725 5723 5722 5721 5720 5720 5719 5718
5825 5825 5825 5824 5825 5826 5826 5827 5828 5828 5828 5828 5828 5828 5828 5828 5828 5828 5828 5827 5827 5827 5827 5827 5826 5826 5827 5827 5828 5828 5827 5825 5824 5823 5823 5822 5821 5820 5818 5817 5815 5813 5812 5810 5808 5806 5804 5801 5799 5797 5794 5792 5789 5786 5783 5781 5778 5775 5772 5770 5766 5763 5760 5756 5753 5750 5746 5743 5739 5735 5732 5729 5726 5724 5722 5720 5718 5716 5715 5713 5713 5712 5712 5711 5711
5822 5822 5823 5823 5823 5824 5825 5825 5826 5826 5826 5826 5826 5826 5826 5826 5826 5826 5826 5825 5825 5825 5825 5825 5824 5824 5825 5825 5826 5826 5825 5825 5824 5822 5821 5820 5819 5817 5816 5814 5813 5811 5809 5808 5806 5803 5801 5799 5797 5794 5791 5788 5785 5782 5780 5777 5775 5771 5768 5765 5762 5758 5755 5751 5747 5744 5740 5736 5732 5728 5724 5721 5717 5714 5712 5710 5708 5706 5705 5704 5704 5703 5703 5703 5703
5819 5820 5820 5821 5822 5823 5823 5824 5824 5824 5824 5824 5823 5823 5824 5824 5824 5824 5823 5823 5823 5823 5823 5823 5822 5823 5823 5823 5823 5823 5823 5822 5822 5821 5820 5818 5817 5815 5814 5812 5811 5809 5807 5805 5803 5800 5798 5796 5793 5790 5787 5785 5782 5779 5777 5774 5771 5768 5764 5761 5757 5753 5749 5745 5740 5736 5732 5728 5724 5720 5717 5713 5709 5706 5703 5700 5697 5695 5694 5694 5694 5694 5694 5694 5695
5817 5816 5817 5819 5819 5820 5821 5821 5821 5821 5821 5821 5821 5821 5821 5821 5821 5821 5821 5821 5821 5821 5821 5821 5821 5821 5821 5821 5821 5820 5820 5819 5819 5818 5817 5816 5814 5812 5811 5810 5808 5806 5804 5802 5800 5797 5795 5792 5790 5787 5785 5783 5780 5778 5775 5772 5768 5765 5760 5756 5752 5748 5744 5739 5735 5730 5725 5721 5717 5713 5709 5705 5701 5698 5695 5692 5688 5686 5684 5683 5683 5683 5684 5684 5685
5814 5814 5815 5816 5816 5817 5818 5818 5819 5819 5819 5819 5819 5819 5819 5819 5819 5819 5819 5819 5819 5819 5819 5819 5820 5820 5820 5819 5819 5818 5818 5816 5815 5815 5814 5813 5811 5810 5808 5806 5805 5803 5801 5799 5797 5795 5792 5790 5789 5786 5784 5781 5779 5776 5772 5768 5764 5760 5755 5751 5747 5743 5738 5734 5729 5725 5720 5716 5712 5708 5703 5698 5694 5690 5687 5684 5681 5678 5675 5674 5673 5673 5674 5674 5675
5811 5811 5812 5813 5813 5814 5815 5815 5816 5816 5817 5817 5817 5817 5817 5817 5817 5817 5817 5817 5817 5817 5818 5818 5819 5818 5818 5818 5817 5816 5815 5814 5813 5812 5811 5810 5809 5808 5806 5804 5802 5800 5798 5797 5795 5793 5791 5789 5787 5784 5781 5778 5775 5771 5767 5763 5759 5755 5750 5746 5742 5737 5733 5728 5723 5718 5714 5710 5706 5702 5697 5692 5688 5683 5679 5676 5673 5670 5668 5666 5664 5664 5664 5664 5665
5808 5809 5809 5810 5810 5811 5812 5812 5813 5814 5814 5815 5815 5815 5815 5815 5815 5815 5815 5815 5815 5816 5816 5817 5817 5817 5817 5816 5815 5814 5813 5812 5811 5810 5808 5807 5806 5805 5804 5802 5801 5799 5797 5795 5793 5791 5789 5787 5784 5781 5778 5774 5770 5766 5763 5758 5754 5751 5746 5742 5737 5733 5728 5723 5718 5713 5709 5704 5699 5695 5690 5685 5681 5677 5673 5669 5666 5663 5661 5658 5657 5655 5655 5656 5656
5806 5806 5807 5807 5808 5808 5809 5810 5811 5811 5812 5812 5813 5813 5812 5812 5812 5812 5813 5813 5813 5814 5815 5815 5815 5815 5815 5814 5813 5812 5811 5810 5809 5807 5806 5805 5803 5802 5801 5800 5798 5797 5795 5793 5790 5788 5787 5784 5781 5777 5774 5770 5766 5763 5759 5755 5751 5747 5743 5738 5734 5729 5724 5719 5715 5710 5704 5699 5694 5690 5685 5680 5676 5672 5668 5664 5661 5658 5654 5652 5649 5648 5647 5647 5648
5804 5804 5804 5805 5806 5806 5806 5807 5808 5809 5810 5810 5810 5811 5810 5810 5810 5811 5811 5811 5812 5813 5813 5813 5813 5813 5812 5811 5811 5810 5809 5808 5806 5805 5804 5802 5801 5800 5798 5797 5795 5794 5792 5790 5788 5785 5783 5781 5778 5774 5770 5766 5763 5759 5756 5752 5748 5743 5739 5735 5730 5725 5721 5716 5711 5706 5701 5695 5690 5685 5681 5676 5672 5668 5664 5661 5657 5654 5650 5646 5643 5641 5640 5639 5640
5802 5802 5802 5803 5803 5804 5804 5805 5806 5807 5807 5808 5808 5808 5808 5808 5808 5809 5809 5810 5811 5811 5811 5811 5811 5811 5810 5809 5809 5807 5806 5805 5804 5803 5802 5800 5799 5797 5796 5795 5793 5791 5789 5787 5785 5783 5780 5778 5775 5771 5767 5763 5760 5757 5753 5749 5744 5740 5736 5732 5728 5723 5718 5713 5708 5702 5697 5692 5686 5681 5677 5673 5669 5665 5661 5657 5653 5650 5646 5642 5639 5636 5634 5632 5632
5800 5800 5800 5801 5801 5801 5802 5803 5804 5805 5805 5806 5806 5806 5806 5806 5806 5807 5808 5809 5809 5809 5809 5809 5809 5809 5808 5807 5806 5805 5804 5803 5802 5801 5799 5798 5797 5795 5794 5792 5790 5788 5787 5785 5783 5780 5777 5774 5771 5768 5764 5761 5757 5753 5750 5746 5742 5738 5734 5730 5725 5720 5715 5710 5705 5699 5694 5689 5683 5678 5673 5669 5665 5661 5657 5653 5649 5645 5642 5638 5635 5631 5629 5627 5626
5797 5797 5798 5798 5799 5799 5800 5801 5802 5802 5803 5804 5804 5804 5804 5804 5805 5806 5806 5807 5807 5807 5807 5807 5807 5807 5806 5805 5804 5803 5802 5801 5800 5798 5797 5796 5795 5793 5792 5790 5789 5786 5784 5782 5780 5777 5774 5771 5768 5764 5761 5758 5754 5751 5747 5743 5740 5736 5732 5728 5723 5718 5712 5707 5702 5696 5691 5686 5680 5675 5670 5666 5662 5658 5653 5649 5645 5642 5638 5634 5630 5627 5625 5623 5621
5794 5795 5795 5796 5796 5797 5798 5799 5800 5801 5801 5802 5802 5802 5802 5803 5804 5804 5805 5805 5806 5806 5805 5805 5805 5804 5803 5803 5802 5801 5800 5799 5798 5796 5795 5794 5793 5791 5789 5788 5786 5784 5782 5779 5777 5774 5771 5768 5765 5761 5758 5755 5751 5748 5744 5741 5738 5734 5730 5725 5720 5715 5710 5704 5699 5693 5688 5683 5677 5672 5667 5663 5659 5655 5651 5646 5642 5638 5634 5630 5626 5623 5621 5619 5617
5791 5792 5793 5793 5794 5795 5796 5797 5798 5799 5799 5799 5800 5800 5801 5802 5803 5803 5803 5804 5804 5804 5804 5803 5803 5802 5801 5800 5799 5799 5798 5796 5795 5794 5793 5792 5790 5789 5787 5785 5783 5781 5779 5777 5774 5772 5769 5765 5762 5759 5755 5752 5748 5745 5742 5739 5736 5732 5727 5723 5718 5713 5707 5701 5696 5690 5685 5680 5675 5670 5665 5660 5656 5652 5648 5644 5639 5635 5631 5627 5623 5620 5617 5615 5614
5790 5790 5791 5791 5792 5793 5795 5795 5796 5797 5797 5797 5798 5799 5800 5801 5801 5801 5802 5802 5802 5802 5801 5801 5801 5800 5799 5798 5797 5796 5795 5794 5793 5792 5791 5789 5788 5786 5784 5783 5781 5779 5777 5774 5772 5769 5766 5762 5759 5756 5753 5749 5746 5743 5740 5737 5733 5729 5725 5720 5715 5710 5704 5699 5693 5688 5683 5679 5674 5668 5663 5658 5653 5648 5644 5641 5637 5632 5628 5624 5621 5617 5615 5612 5611
5788 5789 5789 5790 5791 5792 5793 5793 5794 5794 5795 5796 5797 5798 5798 5799 5799 5800 5800 5800 5800 5799 5799 5799 5798 5797 5797 5796 5795 5794 5793 5792 5791 5790 5788 5787 5785 5784 5782 5780 5778 5776 5774 5772 5769 5766 5763 5760 5757 5754 5750 5747 5745 5741 5738 5734 5730 5726 5722 5718 5713 5708 5703 5697 5692 5687 5682 5677 5672 5667 5662 5657 5651 5646 5641 5637 5633 5629 5625 5621 5618 5615 5612 5609 5607
5787 5787 5788 5788 5789 5790 5791 5791 5792 5793 5794 5795 5795 5796 5797 5797 5798 5798 5798 5798 5797 5797 5797 5796 5796 5795 5794 5793 5792 5792 5791 5790 5789 5787 5786 5785 5783 5781 5779 5778 5776 5774 5772 5769 5767 5764 5761 5758 5755 5751 5748 5745 5742 5739 5736 5732 5728 5724 5719 5715 5711 5706 5702 5696 5691 5686 5681 5676 5671 5666 5661 5656 5650 5645 5639 5634 5630 5626 5622 5619 5615 5612 5609 5607 5604
5786 5786 5787 5787 5788 5788 5789 5790 5791 5792 5793 5793 5794 5794 5795 5795 5796 5796 5796 5795 5795 5795 5795 5794 5793 5792 5791 5791 5790 5789 5788 5787 5786 5785 5784 5782 5780 5778 5777 5775 5773 5771 5769 5766 5764 5761 5758 5755 5752 5749 5746 5743 5740 5737 5734 5730 5727 5723 5718 5713 5709 5705 5700 5695 5691 5686 5681 5675 5670 5665 5660 5654 5649 5644 5639 5633 5628 5623 5619 5616 5612 5609 5606 5603 5601
5784 5785 5786 5786 5787 5787 5788 5789 5790 5790 5791 5792 5792 5793 5793 5793 5794 5794 5794 5793 5793 5793 5792 5791 5791 5790 5789 5789 5788 5787 5786 5785 5784 5783 5781 5779 5777 5776 5774 5772 5770 5768 5766 5763 5761 5758 5755 5752 5750 5747 5744 5741 5738 5734 5731 5727 5724 5721 5717 5712 5707 5703 5699 5694 5690 5685 5680 5675 5669 5664 5659 5654 5648 5643 5637 5632 5627 5621 5617 5613 5609 5606 5603 5600 5598
5783 5784 5784 5785 5785 5786 5787 5787 5788 5789 5789 5790 5790 5791 5791 5792 5792 5792 5791 5791 5791 5790 5789 5789 5788 5787 5787 5786 5785 5784 5783 5782 5781 5780 5778 5776 5775 5773 5771 5769 5767 5765 5763 5760 5758 5755 5753 5750 5747 5744 5742 5739 5736 5733 5728 5724 5721 5717 5714 5711 5706 5702 5697 5693 5689 5684 5679 5673 5668 5663 5658 5653 5647 5642 5636 5631 5626 5620 5615 5610 5606 5603 5600 5597 5594
5782 5783 5783 5784 5784 5785 5785 5786 5787 5788 5788 5788 5789 5789 5789 5790 5790 5790 5789 5789 5788 5788 5787 5786 5786 5785 5784 5784 5783 5782 5781 5780 5778 5777 5775 5774 5772 5770 5768 5766 5764 5762 5760 5757 5755 5752 5750 5747 5745 5742 5739 5737 5734 5730 5727 5723 5718 5714 5711 5708 5705 5701 5695 5691 5687 5682 5677 5672 5667 5662 5657 5652 5647 5641 5635 5630 5625 5620 5614 5609 5604 5600 5597 5594 5591
5782 5782 5782 5782 5783 5783 5784 5785 5785 5786 5786 5787 5787 5787 5788 5788 5788 5788 5787 5787 5786 5785 5785 5784 5783 5783 5782 5781 5780 5779 5778 5776 5775 5774 5772 5771 5769 5767 5765 5763 5761 5759 5757 5754 5752 5749 5747 5745 5742 5739 5737 5734 5731 5727 5724 5721 5717 5713 5709 5705 5702 5698 5694 5690 5685 5680 5676 5671 5666 5660 5655 5650 5645 5640 5634 5629 5624 5619 5614 5608 5603 5599 5595 5591 5588
5781 5781 5781 5781 5781 5782 5782 5783 5784 5784 5785 5785 5785 5786 5786 5786 5786 5786 5785 5784 5784 5783 5782 5781 5781 5780 5779 5778 5777 5776 5774 5773 5772 5771 5769 5768 5766 5764 5762 5760 5758 5756 5754 5751 5749 5747 5744 5742 5739 5737 5734 5731 5728 5725 5721 5718 5715 5711 5708 5703 5699 5696 5693 5688 5684 5679 5674 5670 5664 5659 5654 5649 5644 5639 5633 5628 5622 5618 5613 5608 5602 5597 5593 5589 5586
5779 5779 5779 5779 5780 5780 5781 5782 5782 5783 5783 5783 5784 5784 5784 5784 5783 5783 5782 5782 5781 5780 5779 5779 5778 5777 5776 5775 5773 5772 5771 5770 5769 5767 5766 5765 5763 5761 5759 5757 5755 5753 5751 5748 5746 5744 5741 5739 5736 5734 5731 5728 5725 5722 5719 5715 5711 5708 5705 5702 5698 5694 5690 5686 5682 5677 5672 5668 5663 5658 5653 5648 5643 5638 5633 5628 5622 5617 5612 5607 5602 5596 5591 5587 5583
5778 5778 5778 5778 5778 5779 5779 5780 5781 5781 5781 5781 5781 5781 5781 5781 5781 5780 5780 5779 5778 5777 5777 5776 5775 5774 5773 5771 5770 5769 5768 5767 5766 5764 5763 5761 5760 5758 5756 5754 5752 5750 5748 5745 5743 5741 5738 5736 5733 5731 5728 5725 5722 5719 5716 5713 5709 5706 5703 5699 5696 5692 5687 5683 5679 5675 5670 5666 5662 5657 5652 5647 5642 5637 5632 5627 5621 5616 5610 5605 5599 5594 5589 5584 5580
5777 5777 5777 5777 5777 5778 5778 5778 5779 5779 5779 5779 5779 5779 5779 5778 5778 5777 5777 5776 5775 5775 5774 5773 5772 5770 5769 5768 5766 5765 5764 5764 5762 5761 5760 5758 5757 5755 5753 5751 5749 5747 5744 5742 5740 5737 5735 5733 5730 5728 5725 5722 5719 5716 5713 5710 5707 5704 5700 5697 5693 5689 5685 5681 5676 5672 5668 5664 5660 5655 5651 5645 5640 5636 5631 5626 5620 5615 5608 5603 5597 5591 5587 5582 5577
5776 5776 5776 5776 5776 5776 5776 5776 5777 5777 5777 5776 5776 5776 5776 5775 5775 5774 5774 5773 5773 5772 5771 5769 5768 5767 5766 5764 5763 5762 5761 5760 5759 5758 5757 5755 5753 5751 5750 5748 5746 5743 5741 5739 5737 5734 5732 5730 5728 5725 5722 5720 5717 5713 5710 5707 5704 5701 5698 5694 5691 5687 5683 5680 5675 5671 5666 5662 5658 5654 5649 5644 5639 5634 5629 5624 5619 5613 5607 5602 5596 5590 5585 5579 5574
5774 5774 5774 5774 5774 5774 5775 5774 5775 5775 5774 5774 5774 5773 5773 5773 5772 5772 5771 5770 5770 5769 5767 5766 5765 5763 5762 5760 5759 5758 5758 5757 5756 5755 5753 5752 5750 5748 5746 5744 5742 5740 5738 5736 5734 5732 5729 5727 5725 5722 5720 5717 5714 5711 5708 5705 5701 5698 5694 5691 5688 5685 5681 5677 5674 5669 5665 5661 5656 5652 5648 5643 5638 5633 5628 5623 5618 5612 5606 5601 5596 5590 5584 5578 5571
5772 5772 5773 5773 5773 5773 5772 5772 5772 5772 5771 5771 5771 5770 5770 5770 5769 5769 5768 5767 5766 5765 5764 5762 5761 5760 5758 5756 5755 5755 5754 5753 5752 5751 5750 5748 5746 5745 5743 5741 5739 5738 5736 5733 5731 5729 5727 5724 5722 5720 5717 5715 5712 5709 5706 5703 5699 5695 5691 5688 5685 5682 5679 5675 5671 5667 5663 5659 5655 5650 5646 5642 5637 5632 5627 5622 5617 5611 5605 5600 5595 5589 5583 5577 5570
5771 5771 5771 5771 5770 5770 5770 5770 5770 5769 5768 5768 5768 5767 5767 5767 5766 5766 5765 5763 5762 5761 5760 5758 5757 5755 5754 5752 5752 5751 5751 5750 5749 5748 5747 5745 5743 5741 5740 5738 5736 5734 5733 5730 5728 5726 5724 5722 5720 5718 5715 5712 5709 5706 5703 5699 5696 5693 5690 5686 5683 5679 5676 5672 5669 5665 5661 5657 5653 5649 5644 5639 5635 5631 5626 5621 5616 5611 5605 5599 5594 5588 5582 5576 5569
5769 5769 5769 5768 5768 5768 5767 5767 5767 5766 5765 5765 5765 5764 5764 5764 5763 5762 5761 5759 5758 5757 5756 5754 5753 5752 5750 5749 5749 5748 5747 5747 5746 5744 5743 5741 5739 5738 5736 5734 5733 5731 5729 5727 5725 5724 5722 5720 5718 5715 5712 5708 5705 5702 5699 5696 5693 5690 5687 5684 5680 5677 5673 5670 5666 5662 5658 5654 5651 5647 5643 5638 5633 5628 5624 5620 5615 5610 5605 5599 5593 5588 5581 5575 5569
5766 5766 5766 5766 5765 5765 5765 5765 5764 5762 5762 5762 5762 5761 5761 5760 5760 5759 5757 5756 5755 5753 5752 5750 5749 5748 5747 5746 5745 5744 5744 5743 5742 5741 5739 5737 5736 5734 5733 5732 5730 5728 5726 5725 5723 5721 5719 5717 5714 5711 5708 5705 5702 5699 5696 5693 5690 5687 5684 5681 5678 5674 5671 5668 5664 5661 5657 5653 5649 5645 5641 5637 5632 5627 5622 5618 5614 5609 5604 5599 5594 5588 5582 5575 5569
5763 5763 5763 5763 5762 5762 5761 5762 5761 5759 5759 5759 5758 5758 5757 5757 5756 5755 5754 5753 5751 5750 5748 5746 5745 5745 5744 5743 5742 5741 5741 5740 5739 5737 5736 5734 5732 5731 5730 5728 5727 5725 5723 5721 5720 5718 5716 5713 5710 5707 5705 5702 5699 5696 5693 5690 5687 5684 5681 5678 5675 5672 5669 5665 5662 5659 5655 5652 5647 5643 5639 5635 5632 5627 5621 5616 5612 5608 5604 5599 5594 5589 5583 5577 5570
5760 5761 5760 5760 5759 5758 5758 5759 5757 5755 5756 5756 5755 5754 5754 5753 5753 5751 5750 5749 5748 5746 5744 5742 5741 5741 5740 5740 5739 5738 5737 5736 5735 5734 5732 5731 5729 5727 5726 5725 5723 5721 5720 5718 5716 5714 5712 5710 5707 5704 5701 5698 5695 5693 5690 5687 5684 5681 5678 5675 5672 5669 5666 5663 5660 5656 5653 5649 5646 5642 5638 5634 5630 5627 5622 5616 5611 5606 5602 5598 5593 5588 5584 5579 5572
5757 5757 5757 5756 5755 5754 5754 5755 5753 5751 5752 5752 5751 5750 5750 5749 5749 5747 5746 5745 5744 5742 5740 5739 5738 5737 5737 5736 5735 5734 5734 5733 5732 5730 5729 5727 5726 5724 5723 5721 5720 5718 5716 5715 5713 5711 5708 5706 5703 5700 5697 5695 5692 5689 5686 5684 5681 5678 5675 5672 5669 5666 5662 5660 5657 5654 5651 5647 5643 5640 5636 5632 5628 5625 5621 5618 5613 5607 5602 5597 5593 5588 5584 5580 5575